This is the latest recevied weather packets stored in our database for station/object UR7D-12. If no packets are shown the sender has not sent any weather packets the latest 1 day(s).
| Time | Temp. | Humidity | Pressure | Rain* | Wind** | Luminosity | Snow |
|---|---|---|---|---|---|---|---|
| 1777973478 | 22.78° C | 36% | 989.5 hPa | 0 mm | 0.45 m/s, 248° | - | - |
| 1777973178 | 22.78° C | 38% | 989.5 hPa | 0 mm | 0.89 m/s, 257° | - | - |
| 1777972876 | 22.22° C | 39% | 989.6 hPa | 0 mm | 0.89 m/s, 131° | - | - |
| 1777971976 | 22.22° C | 40% | 989.8 hPa | 0 mm | 0.89 m/s, 115° | - | - |
| 1777971675 | 21.67° C | 39% | 989.8 hPa | 0 mm | 0.89 m/s, 142° | - | - |
| 1777971375 | 21.67° C | 40% | 989.7 hPa | 0 mm | 0.89 m/s, 140° | - | - |
| 1777971075 | 21.11° C | 41% | 989.7 hPa | 0 mm | 0.89 m/s, 77° | - | - |
| 1777970774 | 21.11° C | 41% | 989.8 hPa | 0 mm | 0.89 m/s, 104° | - | - |
| 1777970474 | 20.56° C | 43% | 989.8 hPa | 0 mm | 1.34 m/s, 155° | - | - |
| 1777970175 | 20.56° C | 42% | 989.9 hPa | 0 mm | 1.79 m/s, 132° | - | - |
| 1777969875 | 20.56° C | 42% | 989.9 hPa | 0 mm | 1.79 m/s, 113° | - | - |
| 1777969573 | 20.56° C | 46% | 990 hPa | 0 mm | 1.79 m/s, 103° | - | - |
| 1777969275 | 20° C | 47% | 990 hPa | 0 mm | 2.24 m/s, 171° | - | - |
| 1777968672 | 18.89° C | 45% | 990 hPa | 0 mm | 2.68 m/s, 117° | - | - |
| 1777968073 | 18.89° C | 47% | 990.1 hPa | 0 mm | 2.68 m/s, 75° | - | - |
| 1777967471 | 18.33° C | 49% | 990.2 hPa | 0 mm | 3.13 m/s, 80° | - | - |
| 1777966871 | 17.78° C | 50% | 990.1 hPa | 0 mm | 2.68 m/s, 110° | - | - |
| 1777965970 | 17.22° C | 53% | 990.1 hPa | 0 mm | 3.13 m/s, 87° | - | - |
| 1777965070 | 16.67° C | 52% | 990.1 hPa | 0 mm | 4.47 m/s, 98° | - | - |
| 1777964769 | 16.11° C | 55% | 990.2 hPa | 0 mm | 4.47 m/s, 98° | - | - |
| 1777964468 | 16.11° C | 54% | 990.1 hPa | 0 mm | 4.02 m/s, 93° | - | - |
| 1777964170 | 16.11° C | 54% | 990.1 hPa | 0 mm | 4.02 m/s, 99° | - | - |
| 1777963570 | 16.11° C | 56% | 990 hPa | 0 mm | 4.02 m/s, 105° | - | - |
| 1777963267 | 15.56° C | 55% | 990 hPa | 0 mm | 3.58 m/s, 105° | - | - |
| 1777962967 | 15.56° C | 56% | 990.1 hPa | 0 mm | 3.13 m/s, 91° | - | - |
* Rain latest hour (hover to see other rain measurements)
** Current wind speed in m/s (hover to see current wind gust speed)